IZ6SAC-13 Weather Reports


Display with metric or nautical units.
time (UTC)temp
F
wind
direction
speed
MPH
gust
MPH
rain 1hr
in
rain 24hr
in
rain mn
in
humidity
%
barometer
mb
20260906042516 74 231 1.0 2.0 0.00 0.00 0.00 60 1020.3
20260906035519 74 201 0.0 1.0 0.00 0.00 0.00 58 1020.1
20260906032523 75 233 0.0 0.0 0.00 0.00 0.00 58 1019.7
20260906025527 75 222 0.0 0.0 0.00 0.00 0.00 57 1019.6
20260906022530 76 222 0.0 1.0 0.00 0.00 0.00 55 1019.5
20260906015533 76 226 1.0 2.0 0.00 0.00 0.00 56 1019.1
20260906012517 76 242 0.0 1.0 0.00 0.00 0.00 56 1019.3
20260906005520 77 232 0.0 1.0 0.00 0.00 0.00 56 1019.2
20260906002523 78 228 1.0 3.0 0.00 0.00 0.00 54 1019.4
20260905235526 78 227 1.0 3.0 0.00 0.00 0.00 53 1019.3
20260905232530 77 227 1.0 1.0 0.00 0.00 0.00 52 1019.2
20260905225533 77 228 1.0 3.0 0.00 0.00 0.00 52 1019.2
20260905222517 77 227 1.0 2.0 0.00 0.00 0.00 50 1019.0
20260905215520 77 235 1.0 3.0 0.00 0.00 0.00 49 1019.0
20260905212523 75 185 0.0 0.0 0.00 0.00 0.00 53 1018.8
20260905205527 75 185 0.0 0.0 0.00 0.00 0.00 50 1018.9
20260905202531 77 185 0.0 0.0 0.00 0.00 0.00 49 1018.9
20260905195535 79 185 0.0 0.0 0.00 0.00 0.00 46 1018.6
20260905192517 80 184 0.0 1.0 0.00 0.00 0.00 45 1018.6
20260905185521 81 155 0.0 1.0 0.00 0.00 0.00 43 1018.3
20260905182524 81 121 0.0 2.0 0.00 0.00 0.00 42 1017.9
20260905175528 83 107 1.0 6.0 0.00 0.00 0.00 38 1017.9
20260905172536 84 76 4.0 7.0 0.00 0.00 0.00 33 1017.4
20260905165534 86 98 3.0 8.0 0.00 0.00 0.00 33 1017.4
20260905162524 87 96 6.0 9.0 0.00 0.00 0.00 32 1017.3
20260905155521 91 95 7.0 13.0 0.00 0.00 0.00 30 1017.2
20260905152524 92 95 5.0 10.0 0.00 0.00 0.00 29 1017.3
20260905145528 93 87 7.0 13.0 0.00 0.00 0.00 32 1017.2
20260905142535 95 82 5.0 9.0 0.00 0.00 0.00 31 1017.4
20260905135534 95 56 6.0 13.0 0.00 0.00 0.00 27 1017.3
20260905132518 97 71 4.0 9.0 0.00 0.00 0.00 27 1017.5
20260905125521 103 236 3.0 8.0 0.00 0.00 0.00 20 1017.6
20260905122539 100 243 4.0 8.0 0.00 0.00 0.00 22 1017.7
20260905115528 100 237 4.0 8.0 0.00 0.00 0.00 22 1017.9
20260905112532 99 243 3.0 8.0 0.00 0.00 0.00 22 1018.1
20260905105535 99 241 3.0 9.0 0.00 0.00 0.00 21 1018.1
20260905102519 99 234 2.0 4.0 0.00 0.00 0.00 21 1017.9
20260905095522 100 247 2.0 6.0 0.00 0.00 0.00 20 1018.0
20260905092525 98 230 2.0 6.0 0.00 0.00 0.00 23 1018.0
20260905085528 96 225 2.0 4.0 0.00 0.00 0.00 26 1017.8
20260905082532 92 201 1.0 6.0 0.00 0.00 0.00 29 1017.9
20260905075535 89 240 3.0 6.0 0.00 0.00 0.00 32 1017.7
20260905072518 87 227 2.0 4.0 0.00 0.00 0.00 34 1017.5
20260905065521 87 232 2.0 3.0 0.00 0.00 0.00 35 1017.7
20260905062525 85 231 2.0 4.0 0.00 0.00 0.00 37 1017.7
20260905055528 83 233 3.0 6.0 0.00 0.00 0.00 39 1017.5
20260905052532 78 219 3.0 4.0 0.00 0.00 0.00 42 1017.4
20260905045535 78 240 3.0 7.0 0.00 0.00 0.00 42 1017.2